Regional Weather Roundup
Issued by NWS

Home | Current Version | Previous Version | Text Only | Print | Product List | Glossary Off
Versions: 1 2 3 4 5 6 7 8 9 10 11 12 13 14 15 16 17 18 19 20 21 22 23 24 25 26 27 28 29 30 31 32 33 34 35 36 37 38 39 40 41 42 43 44 45 46 47 48 49 50

000
ASUS43 KLOT 291208
RWRIL

ILLINOIS REGIONAL WEATHER ROUNDUP
NATIONAL WEATHER SERVICE CHICAGO/ROMEOVILLE IL
700 AM CDT WED MAR 29 2017

NOTE: "FAIR" INDICATES FEW OR NO CLOUDS BELOW 12,000 FEET WITH NO
SIGNIFICANT WEATHER AND/OR OBSTRUCTIONS TO VISIBILITY.

* THESE STATIONS ARE NOT UNDER NWS QUALITY CONTROL. THEY ALSO MAY NOT
  REPORT WEATHER SUCH AS PRECIPITATION OR FOG.

ILZ001-002-007-009-015-016-024-291300-
NORTHWEST ILLINOIS

CITY           SKY/WX    TMP DP  RH WIND       PRES   REMARKS
MOLINE         CLOUDY    44  40  85 E15G24    30.16S
6HR MIN TEMP:  37; 6HR MAX TEMP:  44;

STERLING*      CLOUDY    38  37  97 E15       30.20F FOG     WCI  29
SAVANNA*       CLOUDY    38  37  95 E8        30.21R FOG     WCI  32
$$

ILZ003-004-008-010-011-017-018-291300-
NORTH CENTRAL ILLINOIS

CITY           SKY/WX    TMP DP  RH WIND       PRES   REMARKS
ROCKFORD       CLOUDY    36  35  96 E9        30.24S FOG     WCI  29
6HR MIN TEMP:  36; 6HR MAX TEMP:  41;

FREEPORT*      FOG       34  34  99 E9        30.23S VSB 1/2 WCI  27
ROCHELLE*      CLOUDY    37  36  99 E9        30.22F FOG     WCI  30
DE KALB*       FOG       36  36 100 E12       30.23S VSB 1/2 WCI  27
PERU*          CLOUDY    38  37  93 E14       30.19F FOG     WCI  30
$$

ILZ005-006-012>014-019>023-291300-
NORTHEAST ILLINOIS

CITY           SKY/WX    TMP DP  RH WIND       PRES   REMARKS
CHICAGO-OHARE  FOG       35  33  92 NE7       30.24R VSB 3/4 WCI  29
6HR MIN TEMP:  35; 6HR MAX TEMP:  36;

CHICAGO-MIDWAY CLOUDY    37  36  96 NE8       30.25R FOG     WCI  31
6HR MIN TEMP:  36; 6HR MAX TEMP:  37;

AURORA         CLOUDY    38  36  92 NE13      30.22S FOG     WCI  30
6HR MIN TEMP:  38; 6HR MAX TEMP:  42;

LANSING*       FOG       35  35 100 NE5       30.24R VSB 1/4 WCI  31
JOLIET*        CLOUDY    38  37  98 E7        30.23S FOG     WCI  32
WAUKEGAN       FOG       32  32 100 CALM      30.26R VSB 1/4
6HR MIN TEMP:  31; 6HR MAX TEMP:  34;

DUPAGE AIRPORT FOG       35  35 100 E8        30.22F VSB 1/2 WCI  29
6HR MIN TEMP:  35; 6HR MAX TEMP:  38;

KANKAKEE*      CLEAR     37  36  96 NE5       30.21S FOG     WCI  33
WHEELING       FOG       33  33 100 NE6       30.26R VSB 3/4 WCI  28
6HR MIN TEMP:  32; 6HR MAX TEMP:  35;

MORRIS*        CLOUDY    37  36  94 CALM      30.22S FOG
ROMEOVILLE*    CLOUDY    36  36 100 E8        30.23S FOG     WCI  30
NORTHERLY ISL    N/A     34  33  96 N6          N/A  WCI  29
$$

LMZ740>746-291300-
SOUTHERN LAKE MICHIGAN

STATION/POSITION SKY/WX   TEMP    WIND        PRES    VSBY  WAVE
                          AIR SEA DIR/SP/G                  HT/PER
                          (F)     (DEG/KT/KT) (MB)    (MI)  (FT/S)
HARRISON CRIB              34      10/  5/  6   N/A
BURNHAM HARBOR             35      20/  6/  9   N/A
CALUMET HARBOR             34      30/  5/  7 1023.7R
BURNS HARBOR               36      60/  7/  8 1024.4R
MICHIGAN CITY              36      50/  4/  5   N/A
$$

ILZ025>027-034>036-040-047-049-050-058-095>099-291300-
WEST-CENTRAL ILLINOIS

CITY           SKY/WX    TMP DP  RH WIND       PRES   REMARKS
QUINCY         CLOUDY    43  40  89 E14       30.04R
GALESBURG*     CLOUDY    43  42  99 E14       30.10F FOG
MACOMB*        CLOUDY    42  42  99 E14       30.10F FOG
JACKSONVILLE*  CLOUDY    43  41  92 E16       30.05F FOG
PITTSFIELD*    CLOUDY    44  42  91 E12G20    30.05R
$$

ILZ028>032-037-038-041>044-048-051>054-059>061-291300-
CENTRAL ILLINOIS

CITY           SKY/WX    TMP DP  RH WIND       PRES   REMARKS
PONTIAC        CLOUDY    42  42  99 NE14      30.19R FOG
BLOOMINGTON    CLOUDY    43  42  97 E16       30.15S FOG
DECATUR        CLOUDY    47  43  86 E14       30.12R
PEORIA         CLOUDY    45  43  93 E14       30.13F FOG
6HR MIN TEMP:  42; 6HR MAX TEMP:  45;

LACON*         CLOUDY    42  41  97 E10G16    30.16S FOG
LINCOLN*       CLOUDY    46  45  97 E10       30.13R
SPRINGFIELD    CLOUDY    47  42  83 E14       30.09F
6HR MIN TEMP:  44; 6HR MAX TEMP:  47;

TAYLORVILLE    NOT AVBL
$$

ILZ033-039-045-046-055>057-062-063-291300-
EAST-CENTRAL ILLINOIS

CITY           SKY/WX    TMP DP  RH WIND       PRES   REMARKS
CHAMPAIGN      CLOUDY    47  43  86 NE14      30.14S
RANTOUL*       CLOUDY    47  46  93 E17       30.16S
MATTOON        CLEAR     44  44 100 E9        30.10F
PARIS*         CLOUDY    48  46  93 NE10      30.15S
$$

ILZ079-100>102-291300-
SOUTHWEST ILLINOIS

CITY           SKY/WX    TMP DP  RH WIND       PRES   REMARKS
ALTON          PTCLDY    45  41  87 E9        30.03F
BELLEVILLE     CLOUDY    46  46  99 E9        30.02F
CAHOKIA*       CLOUDY    48  42  80 E13       30.01F
SPARTA*        PTCLDY    46  44  95 E12       30.02F
$$

ILZ064>066-069>071-074>076-080>082-084>086-088>090-092>094-291300-
SOUTH-CENTRAL ILLINOIS

CITY           SKY/WX    TMP DP  RH WIND       PRES   REMARKS
CARBONDALE     CLOUDY    49  48  97 E9        30.02S
6HR MIN TEMP:  48; 6HR MAX TEMP:  51;

CAIRO*         CLEAR     51  50  95 E10       30.00S FOG
EFFINGHAM*     PTCLDY    44  44  99 NE5       30.11S FOG
MARION         CLEAR     50  50 100 E6        30.05R
MT. VERNON     CLOUDY    47  45  93 E6        30.06S
CENTRALIA*     CLEAR     48  46  93 E7        30.05R
SALEM*         CLEAR     48  44  87 E10G16    30.06F
METROPOLIS*    CLEAR     52  50  93 E5        30.03S FOG
$$

ILZ067-068-072-073-078-083-087-091-291300-
SOUTHEAST ILLINOIS

CITY           SKY/WX    TMP DP  RH WIND       PRES   REMARKS
LAWRENCEVILLE  CLEAR     47  45  93 NE8       30.10R
FLORA*         CLEAR     47  44  91 NE8       30.09R
FAIRFIELD*     CLOUDY    48  47  94 NE6       30.07R
HARRISBURG*    CLOUDY    51  49  93 E9        30.05S FOG
ROBINSON*      CLEAR     45  43  95 NE7       30.12S
CARMI*         CLOUDY    49  48  95 E8        30.07S
$$

ABBREVIATIONS USED IN REMARKS
   TC - TEMPERATURE IN CELSIUS
  WCI - WIND CHILL INDEX
   HX - HEAT INDEX
  VSB - VISIBILITY
$$





USA.gov is the U.S. government's official web portal to all federal, state and local government web resources and services.